E1646 Weather Reports


time (UTC)temp
C
wind
direction
speed
KPH
gust
KPH
rain 1hr
cm
rain 24hr
cm
rain mn
cm
humidity
%
barometer
mb
20260504081522 -17 0.0 0.0 0.00 0.00 0.00 1012.7
20260504044537 10 266 4.8 17.7 0.00 0.00 0.00 49 1012.2
20260504043028 9 91 6.4 19.3 0.00 0.00 0.00 49 1012.2
20260504041524 10 120 3.2 14.5 0.00 0.00 0.00 48 1012.2
20260504040018 10 219 4.8 12.9 0.00 0.00 0.00 46 1012.1
20260504034519 10 173 4.8 16.1 0.00 0.00 0.00 46 1012.1
20260504033015 10 269 4.8 12.9 0.00 0.00 0.00 47 1012.1
20260504031511 9 152 8.0 16.1 0.00 0.00 0.00 48 1012.1
20260504030030 10 135 4.8 9.7 0.00 0.00 0.00 48 1012.1
20260504024508 10 215 4.8 8.0 0.00 0.00 0.00 47 1012.2
20260504023007 10 153 4.8 9.7 0.00 0.00 0.00 47 1012.3
20260504021505 10 301 3.2 14.5 0.00 0.00 0.00 46 1012.2
20260504020003 10 162 0.0 9.7 0.00 0.00 0.00 46 1012.3
20260504014600 10 229 0.0 8.0 0.00 0.00 0.00 46 1012.2
20260504013109 10 291 3.2 8.0 0.00 0.00 0.00 46 1012.1
20260504011557 10 359 8.0 14.5 0.00 0.00 0.00 46 1012.1
20260504010109 10 325 4.8 17.7 0.00 0.00 0.00 45 1011.9
20260504004610 10 340 6.4 11.3 0.00 0.00 0.00 44 1011.8
20260504003048 11 281 6.4 29.0 0.00 0.00 0.00 43 1011.6
20260504001546 11 336 9.7 19.3 0.00 0.00 0.00 42 1011.3
20260504000044 11 9 11.3 20.9 0.00 0.00 0.00 40 1011.2
20260503234545 11 348 9.7 20.9 0.00 0.00 0.00 39 1011.1
20260503233041 11 328 8.0 19.3 0.00 0.00 0.00 40 1010.9
20260503231537 11 314 4.8 24.1 0.00 0.00 0.00 39 1010.6
20260503230039 11 330 9.7 24.1 0.00 0.00 0.00 38 1010.6
20260503224534 11 340 11.3 27.4 0.00 0.00 0.00 37 1010.5
20260503223032 12 8 16.1 32.2 0.00 0.00 0.00 36 1010.3
20260503221539 12 360 12.9 24.1 0.00 0.00 0.00 34 1010.2
20260503220028 12 315 12.9 27.4 0.00 0.00 0.00 34 1010.2
20260503214527 12 315 17.7 30.6 0.00 0.00 0.00 32 1010.1
20260503213122 12 299 11.3 41.8 0.00 0.00 0.00 31 1010.1
20260503211520 12 29 20.9 40.2 0.00 0.00 0.00 31 1010.1
20260503210016 12 335 16.1 45.1 0.00 0.00 0.00 31 1010.0
20260503204512 12 348 22.5 40.2 0.00 0.00 0.00 31 1010.1
20260503203014 11 349 20.9 45.1 0.00 0.00 0.00 33 1010.1
20260503201506 11 311 12.9 30.6 0.00 0.00 0.00 34 1010.2
20260503200003 11 315 8.0 27.4 0.00 0.00 0.00 38 1010.2
20260503194600 11 1 12.9 35.4 0.00 0.00 0.00 36 1010.5
20260503193100 10 112 19.3 35.4 0.00 0.00 0.00 37 1010.6
20260503191613 10 3 12.9 41.8 0.00 0.00 0.00 40 1010.5
20260503190051 10 359 20.9 35.4 0.00 0.00 0.00 39 1010.6
20260503184555 10 292 17.7 32.2 0.00 0.00 0.00 41 1011.0
20260503183100 9 334 14.5 37.0 0.00 0.00 0.00 42 1010.9
20260503181642 10 20 19.3 40.2 0.00 0.00 0.00 42 1010.9
20260503180042 9 5 17.7 40.2 0.00 0.00 0.00 44 1011.0
20260503174534 8 309 19.3 32.2 0.00 0.00 0.00 47 1011.1
20260503173046 8 320 12.9 43.5 0.00 0.00 0.00 47 1011.4
20260503171528 7 359 11.3 20.9 0.00 0.00 0.00 47 1011.4